LOT441 EPWA-GCTS

Flight info

Callsign LOT441
Flight time 6h 5m
Altitude 34000
Route SOXER DCT VAMPU N869 TOMTI DCT ASTEL DCT OKG DCT AMOSA N869 DKB DCT TEDGO/N0458F350 N869 NATOR DCT LUTIX N869 BENOT DCT NEMOS DCT NINTU DCT REPSI DCT LERGA DCT MINSO DCT NARAK DCT AGN DCT MAQAB DCT TIVLI N869 ELSAP/N0455F370 N869 ZAR Z245 CJN N10 HIJ M30 OXACA N858 OSLEP N747 MINTA DCT OSLAD UR724 IBALU UN857 TERTO
Aircraft B738/M-SDE2E3FGHIRWXY/LB1

Departure

Time 2026-05-06 14:51
Airport Warsaw Chopin Airport (EPWA)

Arrival

Time 2026-05-06 20:57
Airport Tenerife Sur Airport (GCTS)
Time Latitude Longitude Altitude Speed Heading
2026-05-06 14:27 52.17195 20.96965 338 ft 0 kts 62°
2026-05-06 14:41 52.17183 20.96931 332 ft 4 kts 62°
2026-05-06 14:42 52.17172 20.96892 333 ft 4 kts 75°
2026-05-06 14:42 52.17170 20.96850 334 ft 4 kts 107°
2026-05-06 14:42 52.17182 20.96819 332 ft 2 kts 152°
2026-05-06 14:42 52.17187 20.96815 332 ft 0 kts 152°
2026-05-06 14:44 52.17185 20.96817 332 ft 1 kts 152°
2026-05-06 14:45 52.17099 20.96891 335 ft 13 kts 152°
2026-05-06 14:45 52.16999 20.96979 336 ft 18 kts 152°
2026-05-06 14:45 52.16881 20.97081 334 ft 20 kts 152°
2026-05-06 14:45 52.16763 20.97185 336 ft 19 kts 152°
2026-05-06 14:46 52.16649 20.97284 336 ft 18 kts 152°
2026-05-06 14:46 52.16564 20.97407 337 ft 18 kts 115°
2026-05-06 14:46 52.16514 20.97585 335 ft 17 kts 115°
2026-05-06 14:46 52.16465 20.97759 337 ft 16 kts 115°
2026-05-06 14:47 52.16396 20.97791 338 ft 6 kts 204°
2026-05-06 14:47 52.16391 20.97787 338 ft 0 kts 204°
2026-05-06 14:47 52.16388 20.97785 338 ft 2 kts 204°
2026-05-06 14:48 52.16353 20.97759 338 ft 9 kts 204°
2026-05-06 14:48 52.16306 20.97677 335 ft 11 kts 271°
2026-05-06 14:48 52.16321 20.97614 333 ft 0 kts 295°
2026-05-06 14:50 52.16331 20.97578 333 ft 19 kts 295°
2026-05-06 14:51 52.16489 20.97020 333 ft 87 kts 294°
2026-05-06 14:51 52.16822 20.95828 335 ft 143 kts 294°
2026-05-06 14:51 52.17273 20.94190 536 ft 170 kts 291°
2026-05-06 14:51 52.17696 20.92416 1351 ft 166 kts 286°
2026-05-06 14:52 52.18157 20.90594 1894 ft 179 kts 288°
2026-05-06 14:52 52.18422 20.88574 2399 ft 193 kts 263°
2026-05-06 14:52 52.18191 20.86296 2607 ft 216 kts 261°
2026-05-06 14:52 52.18052 20.83808 3113 ft 224 kts 263°
2026-05-06 14:53 52.18087 20.81188 3383 ft 252 kts 282°
2026-05-06 14:53 52.18632 20.78434 4223 ft 253 kts 282°
2026-05-06 14:53 52.19058 20.75646 5052 ft 256 kts 279°
2026-05-06 14:53 52.19459 20.72763 5854 ft 259 kts 279°
2026-05-06 14:54 52.19623 20.69855 6616 ft 258 kts 257°
2026-05-06 14:54 52.19024 20.67127 7437 ft 256 kts 247°
2026-05-06 14:54 52.18407 20.64402 8303 ft 255 kts 250°
2026-05-06 14:54 52.17831 20.61702 9103 ft 257 kts 250°
2026-05-06 14:55 52.17227 20.58912 9915 ft 258 kts 249°
2026-05-06 14:55 52.16616 20.56132 10247 ft 277 kts 249°
2026-05-06 14:55 52.15926 20.53021 10435 ft 300 kts 249°
2026-05-06 14:55 52.15190 20.49709 10641 ft 321 kts 249°
2026-05-06 14:56 52.14491 20.46249 11130 ft 329 kts 251°
2026-05-06 14:56 52.13815 20.42662 11806 ft 333 kts 251°
2026-05-06 14:56 52.13139 20.39028 12499 ft 337 kts 251°
2026-05-06 14:56 52.12453 20.35361 13161 ft 341 kts 251°
2026-05-06 14:57 52.11753 20.31649 13782 ft 346 kts 250°
2026-05-06 14:57 52.11039 20.27890 14413 ft 348 kts 250°
2026-05-06 14:57 52.10309 20.24068 15092 ft 350 kts 250°
2026-05-06 14:57 52.09595 20.20343 15750 ft 351 kts 250°
2026-05-06 14:58 52.08864 20.16541 16371 ft 354 kts 250°
2026-05-06 14:58 52.08125 20.12712 17002 ft 356 kts 250°
2026-05-06 14:58 52.07381 20.08859 17618 ft 358 kts 250°
2026-05-06 14:58 52.06629 20.04973 18197 ft 361 kts 250°
2026-05-06 14:59 52.05871 20.01065 18701 ft 364 kts 250°
2026-05-06 14:59 52.05105 19.97124 19201 ft 368 kts 250°
2026-05-06 14:59 52.04329 19.93152 19700 ft 370 kts 250°
2026-05-06 14:59 52.03506 19.89175 20213 ft 372 kts 249°
2026-05-06 15:00 52.02643 19.85200 20726 ft 374 kts 249°
2026-05-06 15:00 52.01756 19.81162 21201 ft 377 kts 249°
2026-05-06 15:00 52.00882 19.77187 21658 ft 380 kts 249°
2026-05-06 15:00 51.99981 19.73083 22142 ft 383 kts 249°
2026-05-06 15:01 51.99098 19.69053 22588 ft 385 kts 249°
2026-05-06 15:01 51.98198 19.64942 23022 ft 389 kts 249°
2026-05-06 15:01 51.97292 19.60800 23445 ft 391 kts 249°
2026-05-06 15:01 51.96378 19.56632 23845 ft 392 kts 249°
2026-05-06 15:02 51.95462 19.52460 24258 ft 393 kts 249°
2026-05-06 15:02 51.94544 19.48281 24660 ft 394 kts 249°
2026-05-06 15:02 51.93621 19.44096 25047 ft 396 kts 249°
2026-05-06 15:02 51.92692 19.39890 25419 ft 397 kts 249°
2026-05-06 15:03 51.91757 19.35663 25787 ft 399 kts 249°
2026-05-06 15:03 51.90819 19.31435 26153 ft 400 kts 249°
2026-05-06 15:03 51.89876 19.27190 26513 ft 401 kts 248°
2026-05-06 15:03 51.88929 19.22930 26851 ft 403 kts 248°
2026-05-06 15:04 51.87977 19.18659 27182 ft 404 kts 248°
2026-05-06 15:04 51.87021 19.14386 27510 ft 405 kts 248°
2026-05-06 15:04 51.86065 19.10091 27835 ft 407 kts 248°
2026-05-06 15:04 51.85120 19.05761 28155 ft 408 kts 249°
2026-05-06 15:05 51.84179 19.01421 28457 ft 410 kts 249°
2026-05-06 15:05 51.83233 18.97063 28757 ft 411 kts 248°
2026-05-06 15:05 51.82285 18.92713 29167 ft 410 kts 248°
2026-05-06 15:05 51.81338 18.88392 29677 ft 406 kts 248°
2026-05-06 15:06 51.80398 18.84116 30117 ft 403 kts 248°
2026-05-06 15:06 51.79458 18.79861 30420 ft 403 kts 248°
2026-05-06 15:06 51.78513 18.75591 30710 ft 403 kts 248°
2026-05-06 15:06 51.77571 18.71344 31086 ft 401 kts 248°
2026-05-06 15:07 51.76632 18.67112 31455 ft 399 kts 248°
2026-05-06 15:07 51.75697 18.62907 31730 ft 399 kts 248°
2026-05-06 15:07 51.74756 18.58685 31933 ft 400 kts 248°
2026-05-06 15:07 51.73815 18.54472 32226 ft 399 kts 248°
2026-05-06 15:08 51.72875 18.50268 32581 ft 397 kts 248°
2026-05-06 15:08 51.71938 18.46086 32897 ft 396 kts 248°
2026-05-06 15:08 51.70998 18.41900 33114 ft 397 kts 248°
2026-05-06 15:08 51.70045 18.37664 33313 ft 398 kts 248°
2026-05-06 15:09 51.69096 18.33458 33551 ft 399 kts 248°
2026-05-06 15:09 51.68163 18.29325 33757 ft 399 kts 248°
2026-05-06 15:09 51.67194 18.25047 33730 ft 402 kts 248°
2026-05-06 15:10 51.65290 18.16657 33768 ft 399 kts 248°
2026-05-06 15:10 51.63397 18.08345 33748 ft 395 kts 248°
2026-05-06 15:11 51.61500 18.00053 33722 ft 394 kts 248°
2026-05-06 15:11 51.59606 17.91801 33735 ft 392 kts 248°
2026-05-06 15:12 51.57703 17.83582 33741 ft 392 kts 247°
2026-05-06 15:12 51.55780 17.75368 33740 ft 393 kts 247°
2026-05-06 15:13 51.53846 17.67134 33742 ft 395 kts 247°
2026-05-06 15:13 51.51899 17.58864 33744 ft 397 kts 247°
2026-05-06 15:14 51.49936 17.50557 33751 ft 399 kts 247°
2026-05-06 15:14 51.47961 17.42224 33747 ft 400 kts 247°
2026-05-06 15:15 51.45977 17.33873 33735 ft 401 kts 247°
2026-05-06 15:15 51.44002 17.25536 33750 ft 401 kts 247°
2026-05-06 15:16 51.42019 17.17184 33745 ft 401 kts 247°
2026-05-06 15:16 51.40030 17.08843 33750 ft 400 kts 247°
2026-05-06 15:17 51.38043 17.00542 33750 ft 399 kts 247°
2026-05-06 15:17 51.36056 16.92273 33757 ft 398 kts 247°
2026-05-06 15:18 51.34065 16.84024 33751 ft 397 kts 247°
2026-05-06 15:18 51.32072 16.75793 33761 ft 396 kts 246°
2026-05-06 15:19 51.30077 16.67585 33748 ft 395 kts 247°
2026-05-06 15:19 51.28082 16.59411 33759 ft 395 kts 246°
2026-05-06 15:20 51.26083 16.51249 33763 ft 395 kts 246°
2026-05-06 15:20 51.24077 16.43088 33761 ft 395 kts 246°
2026-05-06 15:21 51.22063 16.34926 33767 ft 396 kts 246°
2026-05-06 15:21 51.20379 16.28123 33766 ft 397 kts 246°
2026-05-06 15:22 51.18344 16.19930 33768 ft 398 kts 246°
2026-05-06 15:22 51.15966 16.10395 33767 ft 399 kts 246°
2026-05-06 15:23 51.14244 16.03516 33773 ft 399 kts 246°
2026-05-06 15:23 51.12184 15.95312 33772 ft 400 kts 246°
2026-05-06 15:24 51.10114 15.87098 33785 ft 400 kts 246°
2026-05-06 15:24 51.08037 15.78888 33789 ft 400 kts 246°
2026-05-06 15:25 51.05953 15.70680 33784 ft 401 kts 246°
2026-05-06 15:25 51.03865 15.62477 33775 ft 401 kts 246°
2026-05-06 15:26 51.01767 15.54276 33785 ft 400 kts 245°
2026-05-06 15:26 50.99659 15.46107 33775 ft 400 kts 246°
2026-05-06 15:27 50.97544 15.37939 33786 ft 400 kts 245°
2026-05-06 15:27 50.95425 15.29775 33774 ft 400 kts 246°
2026-05-06 15:28 50.93649 15.21410 33793 ft 401 kts 250°
2026-05-06 15:28 50.91954 15.12975 33787 ft 402 kts 250°
2026-05-06 15:29 50.90233 15.04550 33775 ft 402 kts 249°
2026-05-06 15:29 50.88497 14.96125 33771 ft 403 kts 249°
2026-05-06 15:30 50.86752 14.87698 33772 ft 402 kts 249°
2026-05-06 15:30 50.84534 14.79642 33770 ft 399 kts 242°
2026-05-06 15:31 50.82029 14.71792 33772 ft 399 kts 242°
2026-05-06 15:31 50.79541 14.63937 33772 ft 400 kts 242°
2026-05-06 15:32 50.75893 14.52341 33771 ft 401 kts 242°
2026-05-06 15:32 50.73415 14.44463 33776 ft 401 kts 242°
2026-05-06 15:33 50.70932 14.36590 33764 ft 401 kts 242°
2026-05-06 15:33 50.68444 14.28727 33763 ft 400 kts 242°
2026-05-06 15:34 50.65956 14.20893 33767 ft 399 kts 242°
2026-05-06 15:34 50.63467 14.13077 33763 ft 399 kts 241°
2026-05-06 15:35 50.60976 14.05286 33760 ft 400 kts 241°
2026-05-06 15:35 50.58487 13.97521 33762 ft 400 kts 241°
2026-05-06 15:36 50.55975 13.89709 33762 ft 400 kts 241°
2026-05-06 15:36 50.53456 13.81898 33764 ft 401 kts 241°
2026-05-06 15:37 50.50931 13.74096 33758 ft 401 kts 241°
2026-05-06 15:37 50.48400 13.66297 33758 ft 401 kts 241°
2026-05-06 15:38 50.45861 13.58501 33761 ft 401 kts 241°
2026-05-06 15:38 50.43384 13.50916 33758 ft 400 kts 241°
2026-05-06 15:39 50.40940 13.43458 33758 ft 400 kts 241°
2026-05-06 15:39 50.38394 13.35708 33760 ft 400 kts 241°
2026-05-06 15:40 50.35846 13.27978 33760 ft 399 kts 241°
2026-05-06 15:40 50.33633 13.21284 33758 ft 399 kts 240°
2026-05-06 15:41 50.31080 13.13582 33761 ft 399 kts 240°
2026-05-06 15:41 50.28519 13.05880 33775 ft 399 kts 240°
2026-05-06 15:42 50.25956 12.98198 33778 ft 399 kts 240°
2026-05-06 15:42 50.23385 12.90514 33788 ft 400 kts 240°
2026-05-06 15:43 50.20800 12.82809 33779 ft 400 kts 240°
2026-05-06 15:43 50.18209 12.75112 33782 ft 401 kts 240°
2026-05-06 15:44 50.15611 12.67415 33778 ft 401 kts 240°
2026-05-06 15:44 50.13006 12.59721 33765 ft 401 kts 240°
2026-05-06 15:45 50.10394 12.52028 33758 ft 402 kts 240°
2026-05-06 15:45 50.07779 12.44349 33765 ft 401 kts 240°
2026-05-06 15:46 50.05160 12.36667 33757 ft 402 kts 240°
2026-05-06 15:46 50.02550 12.28970 33753 ft 402 kts 240°
2026-05-06 15:47 49.99937 12.21274 33744 ft 403 kts 240°
2026-05-06 15:47 49.97318 12.13585 33772 ft 402 kts 240°
2026-05-06 15:48 49.94692 12.05906 33766 ft 403 kts 240°
2026-05-06 15:48 49.92055 11.98217 33757 ft 403 kts 240°
2026-05-06 15:49 49.89414 11.90540 33759 ft 403 kts 240°
2026-05-06 15:49 49.86785 11.82920 33761 ft 404 kts 240°
2026-05-06 15:50 49.84115 11.75205 33754 ft 404 kts 240°
2026-05-06 15:50 49.81455 11.67542 33754 ft 404 kts 240°
2026-05-06 15:51 49.78795 11.59902 33760 ft 403 kts 240°
2026-05-06 15:51 49.76128 11.52263 33757 ft 403 kts 240°
2026-05-06 15:52 49.73461 11.44647 33759 ft 403 kts 240°
2026-05-06 15:52 49.70802 11.37078 33768 ft 402 kts 240°
2026-05-06 15:53 49.68128 11.29488 33774 ft 403 kts 240°
2026-05-06 15:53 49.65448 11.21903 33775 ft 402 kts 240°
2026-05-06 15:54 49.62772 11.14348 33781 ft 401 kts 239°
2026-05-06 15:54 49.60092 11.06810 33772 ft 400 kts 239°
2026-05-06 15:55 49.57418 10.99303 33777 ft 399 kts 239°
2026-05-06 15:55 49.54743 10.91818 33769 ft 398 kts 239°
2026-05-06 15:56 49.52078 10.84383 33777 ft 397 kts 239°
2026-05-06 15:56 49.48795 10.77622 33789 ft 395 kts 224°
2026-05-06 15:57 49.44921 10.71653 33797 ft 394 kts 225°
2026-05-06 15:57 49.41118 10.65601 33799 ft 393 kts 225°
2026-05-06 15:58 49.37355 10.59526 33790 ft 393 kts 225°
2026-05-06 15:58 49.33582 10.53483 33796 ft 392 kts 225°
2026-05-06 15:59 49.29714 10.47597 33795 ft 392 kts 224°
2026-05-06 15:59 49.25849 10.41730 33797 ft 392 kts 224°
2026-05-06 16:00 49.21997 10.35832 33799 ft 392 kts 224°
2026-05-06 16:00 49.18209 10.29896 33802 ft 391 kts 224°
2026-05-06 16:01 49.14402 10.23951 33803 ft 392 kts 225°
2026-05-06 16:01 49.10899 10.17547 33802 ft 394 kts 229°
2026-05-06 16:02 49.07487 10.10985 33781 ft 396 kts 229°
2026-05-06 16:02 49.04620 10.05518 33798 ft 398 kts 229°
2026-05-06 16:03 49.01127 9.98915 33813 ft 402 kts 229°
2026-05-06 16:03 48.97594 9.92272 33808 ft 405 kts 229°
2026-05-06 16:04 48.94029 9.85589 33808 ft 408 kts 229°
2026-05-06 16:04 48.90440 9.78877 33799 ft 409 kts 229°
2026-05-06 16:05 48.86853 9.72185 33795 ft 409 kts 229°
2026-05-06 16:05 48.83266 9.65510 33846 ft 407 kts 229°
2026-05-06 16:06 48.79684 9.58859 33824 ft 406 kts 229°
2026-05-06 16:06 48.76114 9.52250 33826 ft 404 kts 229°
2026-05-06 16:07 48.72547 9.45661 33822 ft 403 kts 229°
2026-05-06 16:07 48.68988 9.39102 33826 ft 403 kts 229°
2026-05-06 16:08 48.65431 9.32560 33830 ft 402 kts 229°
2026-05-06 16:08 48.61880 9.26040 33822 ft 402 kts 230°
2026-05-06 16:09 48.58592 9.19228 33835 ft 402 kts 232°
2026-05-06 16:09 48.55376 9.12325 33824 ft 402 kts 232°
2026-05-06 16:10 48.52145 9.05439 33842 ft 403 kts 232°
2026-05-06 16:10 48.48883 8.98538 33834 ft 407 kts 232°
2026-05-06 16:11 48.45578 8.91576 33826 ft 409 kts 232°
2026-05-06 16:11 48.42267 8.84618 33834 ft 408 kts 232°
2026-05-06 16:12 48.38954 8.77675 33841 ft 408 kts 232°
2026-05-06 16:12 48.35641 8.70750 33840 ft 407 kts 231°
2026-05-06 16:13 48.32331 8.63847 33860 ft 407 kts 231°
2026-05-06 16:13 48.29009 8.56940 33863 ft 408 kts 231°
2026-05-06 16:14 48.25684 8.50041 33867 ft 409 kts 231°
2026-05-06 16:14 48.22341 8.43120 33859 ft 410 kts 231°
2026-05-06 16:15 48.18982 8.36188 33856 ft 411 kts 231°
2026-05-06 16:15 48.15008 8.30126 33865 ft 407 kts 215°
2026-05-06 16:16 48.10231 8.25562 33860 ft 408 kts 212°
2026-05-06 16:16 48.05450 8.20990 33862 ft 409 kts 212°
2026-05-06 16:17 48.00671 8.16390 33867 ft 409 kts 212°
2026-05-06 16:17 47.95880 8.11787 33864 ft 409 kts 212°
2026-05-06 16:18 47.91097 8.07207 33876 ft 409 kts 212°
2026-05-06 16:18 47.86303 8.02630 33866 ft 409 kts 212°
2026-05-06 16:19 47.81522 7.98074 33873 ft 408 kts 212°
2026-05-06 16:19 47.76744 7.93533 33889 ft 407 kts 212°
2026-05-06 16:20 47.72322 7.89337 33889 ft 406 kts 212°
2026-05-06 16:20 47.67558 7.84826 33892 ft 406 kts 212°
2026-05-06 16:21 47.62788 7.80322 33885 ft 406 kts 212°
2026-05-06 16:21 47.58029 7.75837 33884 ft 406 kts 212°
2026-05-06 16:22 47.53267 7.71359 33875 ft 405 kts 212°
2026-05-06 16:22 47.48508 7.66893 33881 ft 404 kts 212°
2026-05-06 16:23 47.43766 7.62452 33893 ft 404 kts 212°
2026-05-06 16:23 47.39008 7.58007 33886 ft 404 kts 212°
2026-05-06 16:24 47.34246 7.53567 33902 ft 405 kts 212°
2026-05-06 16:24 47.29474 7.49127 33913 ft 405 kts 212°
2026-05-06 16:25 47.24706 7.44696 33913 ft 407 kts 212°
2026-05-06 16:25 47.19906 7.40252 33914 ft 408 kts 212°
2026-05-06 16:26 47.15449 7.35136 33919 ft 409 kts 225°
2026-05-06 16:26 47.11902 7.28576 33907 ft 410 kts 230°
2026-05-06 16:27 47.08361 7.22019 33894 ft 410 kts 230°
2026-05-06 16:27 47.04828 7.15517 33905 ft 410 kts 229°
2026-05-06 16:28 47.01260 7.09003 33907 ft 410 kts 229°
2026-05-06 16:28 46.97689 7.02498 33909 ft 409 kts 229°
2026-05-06 16:29 46.94119 6.96001 33939 ft 409 kts 230°
2026-05-06 16:29 46.90730 6.89852 33924 ft 411 kts 230°
2026-05-06 16:30 46.87741 6.84443 33918 ft 412 kts 229°
2026-05-06 16:30 46.83516 6.76810 33917 ft 414 kts 229°
2026-05-06 16:31 46.79883 6.70264 33916 ft 416 kts 229°
2026-05-06 16:31 46.76229 6.63691 33908 ft 416 kts 229°
2026-05-06 16:32 46.72585 6.57151 33904 ft 415 kts 229°
2026-05-06 16:32 46.68943 6.50632 33904 ft 414 kts 229°
2026-05-06 16:33 46.65304 6.44133 33922 ft 414 kts 230°
2026-05-06 16:34 46.59833 6.34392 33906 ft 415 kts 230°
2026-05-06 16:34 46.56167 6.27885 33928 ft 417 kts 229°
2026-05-06 16:35 46.52530 6.21443 33909 ft 419 kts 229°
2026-05-06 16:35 46.48778 6.14812 33916 ft 420 kts 229°
2026-05-06 16:36 46.45062 6.08262 33926 ft 421 kts 229°
2026-05-06 16:36 46.41335 6.01706 33917 ft 422 kts 230°
2026-05-06 16:37 46.37597 5.95148 33909 ft 423 kts 230°
2026-05-06 16:37 46.33851 5.88590 33912 ft 425 kts 230°
2026-05-06 16:38 46.30064 5.81978 33905 ft 426 kts 230°
2026-05-06 16:38 46.26286 5.75396 33915 ft 426 kts 230°
2026-05-06 16:39 46.22523 5.68854 33910 ft 426 kts 230°
2026-05-06 16:39 46.18738 5.62288 33903 ft 425 kts 230°
2026-05-06 16:40 46.14955 5.55741 33910 ft 425 kts 230°
2026-05-06 16:40 46.11459 5.48880 33912 ft 424 kts 235°
2026-05-06 16:41 46.08165 5.41833 33910 ft 424 kts 236°
2026-05-06 16:41 46.04858 5.34815 33903 ft 423 kts 235°
2026-05-06 16:42 46.01524 5.27844 33906 ft 422 kts 235°
2026-05-06 16:42 45.98178 5.20907 33914 ft 422 kts 235°
2026-05-06 16:43 45.94816 5.13958 33930 ft 424 kts 234°
2026-05-06 16:43 45.91431 5.06980 33905 ft 426 kts 235°
2026-05-06 16:44 45.88047 5.00020 33903 ft 424 kts 235°
2026-05-06 16:44 45.84678 4.93105 33907 ft 421 kts 234°
2026-05-06 16:45 45.81329 4.86251 33902 ft 418 kts 234°
2026-05-06 16:45 45.78001 4.79454 33903 ft 416 kts 234°
2026-05-06 16:46 45.75244 4.73836 33910 ft 414 kts 234°
2026-05-06 16:46 45.71930 4.67098 33904 ft 416 kts 234°
2026-05-06 16:47 45.68560 4.60262 33906 ft 424 kts 234°
2026-05-06 16:47 45.65156 4.53374 33889 ft 425 kts 234°
2026-05-06 16:48 45.61737 4.46471 33887 ft 425 kts 234°
2026-05-06 16:48 45.58322 4.39593 33881 ft 424 kts 234°
2026-05-06 16:49 45.54916 4.32747 33884 ft 422 kts 234°
2026-05-06 16:49 45.51515 4.25935 33882 ft 421 kts 234°
2026-05-06 16:50 45.48113 4.19173 33879 ft 419 kts 234°
2026-05-06 16:50 45.44711 4.12433 33885 ft 418 kts 234°
2026-05-06 16:51 45.41320 4.05724 33889 ft 418 kts 234°
2026-05-06 16:51 45.37919 3.99007 33890 ft 418 kts 234°
2026-05-06 16:52 45.34515 3.92301 33891 ft 418 kts 234°
2026-05-06 16:52 45.31106 3.85600 33907 ft 418 kts 234°
2026-05-06 16:53 45.27686 3.78889 33905 ft 420 kts 234°
2026-05-06 16:53 45.24256 3.72135 33897 ft 423 kts 235°
2026-05-06 16:54 45.20877 3.65268 33892 ft 426 kts 236°
2026-05-06 16:54 45.17482 3.58347 33894 ft 428 kts 235°
2026-05-06 16:55 45.14055 3.51399 33892 ft 430 kts 235°
2026-05-06 16:55 45.10624 3.44476 33885 ft 429 kts 235°
2026-05-06 16:56 45.07190 3.37566 33892 ft 428 kts 235°
2026-05-06 16:56 45.03769 3.30699 33888 ft 426 kts 235°
2026-05-06 16:57 45.00386 3.23922 33905 ft 424 kts 235°
2026-05-06 16:57 44.96989 3.17134 33898 ft 422 kts 235°
2026-05-06 16:58 44.93579 3.10335 33907 ft 420 kts 235°
2026-05-06 16:58 44.90201 3.03617 33909 ft 420 kts 235°
2026-05-06 16:59 44.86817 2.96898 33918 ft 420 kts 235°
2026-05-06 16:59 44.83476 2.90209 33910 ft 421 kts 237°
2026-05-06 17:00 44.80272 2.83245 33930 ft 422 kts 238°
2026-05-06 17:00 44.77106 2.76268 33933 ft 424 kts 238°
2026-05-06 17:01 44.73926 2.69336 33934 ft 425 kts 237°
2026-05-06 17:01 44.70693 2.62349 33935 ft 427 kts 237°
2026-05-06 17:02 44.67441 2.55349 33942 ft 429 kts 237°
2026-05-06 17:02 44.64172 2.48329 33941 ft 430 kts 237°
2026-05-06 17:03 44.60889 2.41298 33939 ft 431 kts 237°
2026-05-06 17:03 44.57595 2.34260 33931 ft 431 kts 237°
2026-05-06 17:04 44.54311 2.27259 33923 ft 430 kts 237°
2026-05-06 17:04 44.51019 2.20260 33930 ft 429 kts 237°
2026-05-06 17:05 44.47732 2.13287 33936 ft 429 kts 237°
2026-05-06 17:05 44.44442 2.06322 33930 ft 429 kts 237°
2026-05-06 17:06 44.41148 1.99369 33933 ft 429 kts 237°
2026-05-06 17:06 44.37854 1.92429 33931 ft 428 kts 237°
2026-05-06 17:07 44.34563 1.85513 33919 ft 427 kts 237°
2026-05-06 17:07 44.31268 1.78603 33924 ft 427 kts 237°
2026-05-06 17:08 44.27984 1.71677 33931 ft 427 kts 238°
2026-05-06 17:08 44.24786 1.64698 33926 ft 428 kts 239°
2026-05-06 17:09 44.21590 1.57703 33922 ft 428 kts 238°
2026-05-06 17:09 44.18382 1.50724 33922 ft 428 kts 239°
2026-05-06 17:10 44.15161 1.43748 33933 ft 428 kts 239°
2026-05-06 17:10 44.11936 1.36786 33939 ft 428 kts 239°
2026-05-06 17:11 44.08709 1.29834 33925 ft 428 kts 239°
2026-05-06 17:11 44.05469 1.22871 33940 ft 428 kts 239°
2026-05-06 17:12 44.02229 1.15924 33923 ft 428 kts 239°
2026-05-06 17:12 43.98987 1.08990 33926 ft 428 kts 239°
2026-05-06 17:13 43.95738 1.02056 33936 ft 428 kts 239°
2026-05-06 17:13 43.92487 0.95131 33942 ft 428 kts 239°
2026-05-06 17:14 43.89199 0.88247 33942 ft 429 kts 235°
2026-05-06 17:14 43.84968 0.82433 33958 ft 433 kts 223°
2026-05-06 17:15 43.80472 0.77004 33944 ft 432 kts 224°
2026-05-06 17:15 43.75978 0.71491 33945 ft 431 kts 224°
2026-05-06 17:16 43.71506 0.65989 33956 ft 430 kts 225°
2026-05-06 17:16 43.67034 0.60495 33962 ft 430 kts 224°
2026-05-06 17:17 43.62559 0.55013 33955 ft 429 kts 224°
2026-05-06 17:17 43.58098 0.49560 33962 ft 428 kts 224°
2026-05-06 17:18 43.53638 0.44120 33969 ft 428 kts 224°
2026-05-06 17:18 43.49180 0.38692 33964 ft 428 kts 224°
2026-05-06 17:19 43.44726 0.33278 33974 ft 426 kts 225°
2026-05-06 17:19 43.40314 0.27930 33979 ft 425 kts 225°
2026-05-06 17:20 43.35886 0.22567 33984 ft 424 kts 225°
2026-05-06 17:20 43.31463 0.17217 33986 ft 423 kts 225°
2026-05-06 17:21 43.27053 0.11890 33996 ft 422 kts 225°
2026-05-06 17:21 43.22644 0.06575 33978 ft 422 kts 225°
2026-05-06 17:22 43.18238 0.01274 33991 ft 421 kts 225°
2026-05-06 17:22 43.13837 -0.04009 33991 ft 420 kts 225°
2026-05-06 17:23 43.09435 -0.09283 33993 ft 421 kts 225°
2026-05-06 17:23 43.05075 -0.14497 34007 ft 421 kts 224°
2026-05-06 17:24 43.00688 -0.19732 33986 ft 421 kts 225°
2026-05-06 17:24 42.96278 -0.24985 33988 ft 420 kts 225°
2026-05-06 17:25 42.91878 -0.30216 34006 ft 419 kts 225°
2026-05-06 17:25 42.87596 -0.35299 33979 ft 418 kts 225°
2026-05-06 17:26 42.83456 -0.40202 33979 ft 418 kts 225°
2026-05-06 17:26 42.78661 -0.44723 33983 ft 424 kts 210°
2026-05-06 17:27 42.73124 -0.47626 33952 ft 427 kts 205°
2026-05-06 17:27 42.67570 -0.50495 33952 ft 427 kts 206°
2026-05-06 17:28 42.62411 -0.53195 33944 ft 426 kts 206°
2026-05-06 17:28 42.56884 -0.56092 33933 ft 425 kts 206°
2026-05-06 17:29 42.51363 -0.58979 33934 ft 425 kts 206°
2026-05-06 17:29 42.46774 -0.61375 33931 ft 424 kts 206°
2026-05-06 17:30 42.41267 -0.64244 33933 ft 424 kts 206°
2026-05-06 17:30 42.35759 -0.67107 33917 ft 424 kts 206°
2026-05-06 17:31 42.30250 -0.69966 33920 ft 424 kts 206°
2026-05-06 17:31 42.24741 -0.72820 33923 ft 424 kts 206°
2026-05-06 17:32 42.19231 -0.75669 33896 ft 424 kts 205°
2026-05-06 17:32 42.13741 -0.78502 33930 ft 422 kts 205°
2026-05-06 17:33 42.08255 -0.81328 33940 ft 422 kts 205°
2026-05-06 17:33 42.02773 -0.84147 33934 ft 421 kts 205°
2026-05-06 17:34 41.97299 -0.86961 33919 ft 421 kts 205°
2026-05-06 17:34 41.91837 -0.89771 33923 ft 420 kts 205°
2026-05-06 17:35 41.86440 -0.92544 33940 ft 420 kts 205°
2026-05-06 17:35 41.80928 -0.95370 33942 ft 420 kts 205°
2026-05-06 17:36 41.72757 -0.99550 33930 ft 418 kts 205°
2026-05-06 17:36 41.67351 -1.02404 33931 ft 415 kts 211°
2026-05-06 17:37 41.62683 -1.06733 33937 ft 406 kts 226°
2026-05-06 17:37 41.58547 -1.11851 33943 ft 405 kts 225°
2026-05-06 17:38 41.54361 -1.16905 33926 ft 406 kts 224°
2026-05-06 17:38 41.50167 -1.21942 33936 ft 406 kts 224°
2026-05-06 17:39 41.45992 -1.26950 33940 ft 407 kts 224°
2026-05-06 17:39 41.41779 -1.31999 33939 ft 407 kts 224°
2026-05-06 17:40 41.37529 -1.37082 33944 ft 408 kts 224°
2026-05-06 17:40 41.33330 -1.42096 33908 ft 409 kts 224°
2026-05-06 17:41 41.29062 -1.47183 33932 ft 409 kts 224°
2026-05-06 17:41 41.24827 -1.52221 33934 ft 408 kts 224°
2026-05-06 17:42 41.20590 -1.57253 33942 ft 408 kts 224°
2026-05-06 17:42 41.16355 -1.62274 33929 ft 408 kts 224°
2026-05-06 17:43 41.12123 -1.67283 33937 ft 408 kts 224°
2026-05-06 17:43 41.07924 -1.72245 33931 ft 407 kts 224°
2026-05-06 17:44 41.03695 -1.77232 33927 ft 407 kts 224°
2026-05-06 17:44 40.99468 -1.82208 33931 ft 406 kts 224°
2026-05-06 17:45 40.95261 -1.87158 33930 ft 406 kts 224°
2026-05-06 17:45 40.91004 -1.92159 33933 ft 405 kts 224°
2026-05-06 17:46 40.86784 -1.97108 33924 ft 405 kts 224°
2026-05-06 17:46 40.82597 -2.02010 33923 ft 405 kts 224°
2026-05-06 17:47 40.78354 -2.06969 33922 ft 404 kts 224°
2026-05-06 17:47 40.74168 -2.11854 33921 ft 404 kts 224°
2026-05-06 17:48 40.69957 -2.16750 33924 ft 404 kts 224°
2026-05-06 17:48 40.65736 -2.21639 33922 ft 404 kts 224°
2026-05-06 17:49 40.61504 -2.26534 33919 ft 404 kts 224°
2026-05-06 17:49 40.57272 -2.31422 33916 ft 405 kts 224°
2026-05-06 17:50 40.53034 -2.36309 33916 ft 406 kts 224°
2026-05-06 17:50 40.48787 -2.41200 33912 ft 406 kts 223°
2026-05-06 17:51 40.44526 -2.46097 33899 ft 407 kts 223°
2026-05-06 17:51 40.40271 -2.50980 33908 ft 406 kts 223°
2026-05-06 17:52 40.36120 -2.55992 33908 ft 404 kts 231°
2026-05-06 17:52 40.32560 -2.61673 33915 ft 403 kts 232°
2026-05-06 17:53 40.29007 -2.67354 33917 ft 403 kts 232°
2026-05-06 17:53 40.25430 -2.73003 33912 ft 403 kts 232°
2026-05-06 17:54 40.21836 -2.78643 33893 ft 403 kts 231°
2026-05-06 17:54 40.18246 -2.84259 33912 ft 402 kts 231°
2026-05-06 17:55 40.14657 -2.89865 33906 ft 402 kts 231°
2026-05-06 17:55 40.11071 -2.95454 33905 ft 401 kts 231°
2026-05-06 17:56 40.07490 -3.01027 33906 ft 400 kts 231°
2026-05-06 17:56 40.03910 -3.06588 33901 ft 400 kts 231°
2026-05-06 17:57 40.00326 -3.12147 33903 ft 401 kts 231°
2026-05-06 17:57 39.96736 -3.17703 33895 ft 401 kts 231°
2026-05-06 17:58 39.93139 -3.23261 33892 ft 401 kts 231°
2026-05-06 17:58 39.89549 -3.28798 33893 ft 401 kts 231°
2026-05-06 17:59 39.85948 -3.34345 33892 ft 401 kts 231°
2026-05-06 17:59 39.82341 -3.39891 33881 ft 402 kts 231°
2026-05-06 18:00 39.78729 -3.45431 33878 ft 402 kts 231°
2026-05-06 18:00 39.74933 -3.50710 33887 ft 403 kts 226°
2026-05-06 18:01 39.70960 -3.55843 33880 ft 403 kts 226°
2026-05-06 18:01 39.66970 -3.61028 33878 ft 403 kts 227°
2026-05-06 18:02 39.63043 -3.66168 33872 ft 404 kts 227°
2026-05-06 18:02 39.59094 -3.71339 33873 ft 404 kts 227°
2026-05-06 18:03 39.55137 -3.76507 33876 ft 404 kts 227°
2026-05-06 18:03 39.51186 -3.81668 33859 ft 403 kts 227°
2026-05-06 18:04 39.47234 -3.86826 33871 ft 403 kts 227°
2026-05-06 18:04 39.43281 -3.91976 33878 ft 403 kts 227°
2026-05-06 18:05 39.39469 -3.96936 33880 ft 403 kts 227°
2026-05-06 18:05 39.35505 -4.02084 33867 ft 404 kts 227°
2026-05-06 18:06 39.31540 -4.07224 33877 ft 404 kts 227°
2026-05-06 18:06 39.27568 -4.12358 33853 ft 404 kts 226°
2026-05-06 18:07 39.23603 -4.17481 33869 ft 404 kts 227°
2026-05-06 18:07 39.19635 -4.22605 33870 ft 404 kts 227°
2026-05-06 18:08 39.15638 -4.27754 33877 ft 403 kts 227°
2026-05-06 18:08 39.11691 -4.32827 33866 ft 403 kts 226°
2026-05-06 18:09 39.07693 -4.37958 33876 ft 403 kts 226°
2026-05-06 18:09 39.03744 -4.43019 33842 ft 403 kts 226°
2026-05-06 18:10 38.99775 -4.48096 33865 ft 402 kts 226°
2026-05-06 18:10 38.95810 -4.53162 33870 ft 401 kts 226°
2026-05-06 18:11 38.92487 -4.57395 33874 ft 401 kts 226°
2026-05-06 18:11 38.87874 -4.63257 33868 ft 402 kts 226°
2026-05-06 18:12 38.84539 -4.67490 33876 ft 403 kts 226°
2026-05-06 18:12 38.80540 -4.72558 33867 ft 405 kts 226°
2026-05-06 18:13 38.76530 -4.77631 33862 ft 405 kts 226°
2026-05-06 18:13 38.72509 -4.82711 33860 ft 406 kts 226°
2026-05-06 18:14 38.68486 -4.87787 33858 ft 406 kts 226°
2026-05-06 18:14 38.64482 -4.92829 33856 ft 406 kts 226°
2026-05-06 18:15 38.60449 -4.97899 33854 ft 407 kts 226°
2026-05-06 18:15 38.56404 -5.02978 33850 ft 409 kts 226°
2026-05-06 18:16 38.52339 -5.08072 33838 ft 410 kts 226°
2026-05-06 18:16 38.48536 -5.13451 33862 ft 408 kts 233°
2026-05-06 18:17 38.45076 -5.19215 33850 ft 409 kts 234°
2026-05-06 18:17 38.41599 -5.24970 33857 ft 410 kts 233°
2026-05-06 18:18 38.38088 -5.30709 33850 ft 410 kts 233°
2026-05-06 18:18 38.34564 -5.36434 33844 ft 411 kts 234°
2026-05-06 18:19 38.31024 -5.42172 33850 ft 413 kts 234°
2026-05-06 18:19 38.27464 -5.47931 33850 ft 415 kts 234°
2026-05-06 18:20 38.23889 -5.53704 33851 ft 416 kts 234°
2026-05-06 18:20 38.20300 -5.59490 33854 ft 418 kts 233°
2026-05-06 18:21 38.16691 -5.65299 33848 ft 419 kts 233°
2026-05-06 18:21 38.13077 -5.71105 33847 ft 419 kts 233°
2026-05-06 18:22 38.09460 -5.76906 33843 ft 419 kts 234°
2026-05-06 18:22 38.05835 -5.82708 33849 ft 420 kts 233°
2026-05-06 18:23 38.02208 -5.88506 33838 ft 419 kts 233°
2026-05-06 18:23 37.98585 -5.94288 33838 ft 418 kts 233°
2026-05-06 18:24 37.94963 -6.00054 33839 ft 418 kts 233°
2026-05-06 18:24 37.91298 -6.05761 33841 ft 417 kts 232°
2026-05-06 18:25 37.87611 -6.11418 33841 ft 416 kts 232°
2026-05-06 18:25 37.83929 -6.17069 33853 ft 416 kts 232°
2026-05-06 18:26 37.80258 -6.22706 33848 ft 415 kts 232°
2026-05-06 18:26 37.76587 -6.28338 33846 ft 415 kts 232°
2026-05-06 18:27 37.72914 -6.33963 33859 ft 415 kts 232°
2026-05-06 18:27 37.69236 -6.39588 33859 ft 415 kts 232°
2026-05-06 18:28 37.65559 -6.45203 33858 ft 415 kts 232°
2026-05-06 18:28 37.61873 -6.50819 33863 ft 415 kts 232°
2026-05-06 18:29 37.58192 -6.56419 33859 ft 414 kts 232°
2026-05-06 18:29 37.54514 -6.62004 33859 ft 413 kts 232°
2026-05-06 18:30 37.50841 -6.67573 33855 ft 412 kts 232°
2026-05-06 18:30 37.47177 -6.73120 33865 ft 411 kts 232°
2026-05-06 18:31 37.43517 -6.78650 33866 ft 411 kts 232°
2026-05-06 18:31 37.39854 -6.84178 33866 ft 411 kts 232°
2026-05-06 18:32 37.36191 -6.89694 33867 ft 411 kts 232°
2026-05-06 18:32 37.32556 -6.95159 33866 ft 410 kts 232°
2026-05-06 18:33 37.28898 -7.00650 33869 ft 410 kts 232°
2026-05-06 18:33 37.25241 -7.06132 33857 ft 409 kts 232°
2026-05-06 18:34 37.21591 -7.11596 33866 ft 408 kts 232°
2026-05-06 18:34 37.18019 -7.17124 33858 ft 407 kts 238°
2026-05-06 18:35 37.15644 -7.23516 33869 ft 406 kts 253°
2026-05-06 18:35 37.14404 -7.30355 33865 ft 406 kts 256°
2026-05-06 18:36 37.12515 -7.36945 33880 ft 404 kts 236°
2026-05-06 18:36 37.08597 -7.41975 33872 ft 408 kts 216°
2026-05-06 18:37 37.04581 -7.45194 33871 ft 409 kts 215°
2026-05-06 18:37 36.99002 -7.49636 33859 ft 409 kts 215°
2026-05-06 18:38 36.94215 -7.53489 33878 ft 409 kts 216°
2026-05-06 18:38 36.89437 -7.57356 33881 ft 409 kts 216°
2026-05-06 18:39 36.84659 -7.61223 33889 ft 409 kts 215°
2026-05-06 18:40 36.77487 -7.67018 33890 ft 409 kts 215°
2026-05-06 18:40 36.72708 -7.70872 33877 ft 408 kts 215°
2026-05-06 18:41 36.67941 -7.74709 33891 ft 408 kts 215°
2026-05-06 18:41 36.63181 -7.78536 33899 ft 407 kts 215°
2026-05-06 18:42 36.58421 -7.82357 33901 ft 407 kts 215°
2026-05-06 18:42 36.53664 -7.86170 33901 ft 407 kts 215°
2026-05-06 18:43 36.48912 -7.89973 33907 ft 406 kts 215°
2026-05-06 18:43 36.44157 -7.93773 33901 ft 406 kts 215°
2026-05-06 18:44 36.39418 -7.97555 33919 ft 405 kts 215°
2026-05-06 18:44 36.34757 -8.01269 33910 ft 406 kts 215°
2026-05-06 18:45 36.29945 -8.05097 33920 ft 406 kts 215°
2026-05-06 18:45 36.25189 -8.08876 33920 ft 406 kts 215°
2026-05-06 18:46 36.20438 -8.12645 33914 ft 405 kts 215°
2026-05-06 18:46 36.15688 -8.16409 33916 ft 405 kts 215°
2026-05-06 18:47 36.10937 -8.20167 33927 ft 405 kts 215°
2026-05-06 18:47 36.06184 -8.23922 33924 ft 405 kts 215°
2026-05-06 18:48 36.01436 -8.27669 33923 ft 405 kts 215°
2026-05-06 18:48 35.96580 -8.31209 33926 ft 408 kts 207°
2026-05-06 18:49 35.91104 -8.33216 33933 ft 412 kts 198°
2026-05-06 18:49 35.85550 -8.34928 33957 ft 412 kts 198°
2026-05-06 18:50 35.80000 -8.36685 33938 ft 412 kts 199°
2026-05-06 18:50 35.74455 -8.38445 33934 ft 411 kts 199°
2026-05-06 18:51 35.68917 -8.40197 33942 ft 411 kts 198°
2026-05-06 18:51 35.63381 -8.41944 33943 ft 411 kts 198°
2026-05-06 18:52 35.57887 -8.43676 33936 ft 410 kts 198°
2026-05-06 18:52 35.52364 -8.45413 33947 ft 410 kts 198°
2026-05-06 18:53 35.46840 -8.47149 33945 ft 410 kts 198°
2026-05-06 18:53 35.41318 -8.48881 33939 ft 409 kts 199°
2026-05-06 18:54 35.35812 -8.50606 33947 ft 408 kts 199°
2026-05-06 18:54 35.30308 -8.52328 33949 ft 408 kts 199°
2026-05-06 18:55 35.24805 -8.54048 33954 ft 408 kts 199°
2026-05-06 18:55 35.20231 -8.55475 33954 ft 408 kts 199°
2026-05-06 18:56 35.14729 -8.57189 33946 ft 408 kts 199°
2026-05-06 18:56 35.09235 -8.58899 33954 ft 408 kts 199°
2026-05-06 18:57 35.03741 -8.60606 33954 ft 408 kts 199°
2026-05-06 18:57 34.98242 -8.62313 33954 ft 408 kts 199°
2026-05-06 18:58 34.92744 -8.64017 33926 ft 408 kts 199°
2026-05-06 18:58 34.87247 -8.65718 33951 ft 407 kts 199°
2026-05-06 18:59 34.81760 -8.67413 33962 ft 407 kts 199°
2026-05-06 18:59 34.76259 -8.69111 33961 ft 407 kts 199°
2026-05-06 19:00 34.70769 -8.70803 33959 ft 407 kts 199°
2026-05-06 19:00 34.65265 -8.72497 33952 ft 407 kts 199°
2026-05-06 19:01 34.59772 -8.74186 33963 ft 407 kts 199°
2026-05-06 19:01 34.54272 -8.75875 33959 ft 408 kts 199°
2026-05-06 19:02 34.48770 -8.77561 33958 ft 408 kts 199°
2026-05-06 19:02 34.43539 -8.80005 33968 ft 400 kts 213°
2026-05-06 19:03 34.39100 -8.83963 33962 ft 396 kts 221°
2026-05-06 19:03 34.34801 -8.88136 33963 ft 397 kts 221°
2026-05-06 19:04 34.30476 -8.92286 33962 ft 397 kts 221°
2026-05-06 19:04 34.26144 -8.96433 33966 ft 397 kts 221°
2026-05-06 19:05 34.21806 -9.00584 33966 ft 398 kts 221°
2026-05-06 19:05 34.17465 -9.04733 33967 ft 398 kts 221°
2026-05-06 19:06 34.13122 -9.08880 33935 ft 398 kts 221°
2026-05-06 19:06 34.08771 -9.13028 33965 ft 399 kts 221°
2026-05-06 19:07 34.04415 -9.17176 33970 ft 399 kts 221°
2026-05-06 19:07 34.00046 -9.21331 33973 ft 400 kts 221°
2026-05-06 19:08 33.95675 -9.25482 33965 ft 401 kts 221°
2026-05-06 19:08 33.91321 -9.29611 33959 ft 401 kts 221°
2026-05-06 19:09 33.86929 -9.33771 33968 ft 402 kts 221°
2026-05-06 19:09 33.82537 -9.37924 33956 ft 401 kts 221°
2026-05-06 19:10 33.78152 -9.42067 33970 ft 400 kts 221°
2026-05-06 19:10 33.73771 -9.46198 33970 ft 400 kts 221°
2026-05-06 19:11 33.69673 -9.50060 33971 ft 400 kts 221°
2026-05-06 19:11 33.65283 -9.54191 33976 ft 401 kts 221°
2026-05-06 19:12 33.60876 -9.58332 33975 ft 403 kts 221°
2026-05-06 19:12 33.56456 -9.62480 33962 ft 404 kts 221°
2026-05-06 19:13 33.52025 -9.66632 33967 ft 405 kts 221°
2026-05-06 19:13 33.47588 -9.70784 33975 ft 405 kts 221°
2026-05-06 19:14 33.43149 -9.74934 33974 ft 405 kts 221°
2026-05-06 19:14 33.38696 -9.79090 33973 ft 405 kts 221°
2026-05-06 19:15 33.34251 -9.83233 33978 ft 405 kts 221°
2026-05-06 19:15 33.29796 -9.87381 33980 ft 406 kts 221°
2026-05-06 19:16 33.25332 -9.91531 33968 ft 407 kts 221°
2026-05-06 19:16 33.20859 -9.95684 33976 ft 408 kts 221°
2026-05-06 19:17 33.16370 -9.99847 33974 ft 409 kts 221°
2026-05-06 19:17 33.11870 -10.04014 33974 ft 410 kts 221°
2026-05-06 19:18 33.07360 -10.08186 33982 ft 410 kts 221°
2026-05-06 19:18 33.02848 -10.12354 33982 ft 411 kts 221°
2026-05-06 19:19 32.98323 -10.16524 33980 ft 411 kts 221°
2026-05-06 19:19 32.93836 -10.20652 33979 ft 410 kts 221°
2026-05-06 19:20 32.89279 -10.24842 33973 ft 412 kts 221°
2026-05-06 19:20 32.84741 -10.29008 33982 ft 413 kts 221°
2026-05-06 19:21 32.80179 -10.33192 33995 ft 415 kts 221°
2026-05-06 19:21 32.75601 -10.37386 33986 ft 416 kts 221°
2026-05-06 19:22 32.71036 -10.41561 33971 ft 417 kts 221°
2026-05-06 19:22 32.66435 -10.45763 33985 ft 417 kts 221°
2026-05-06 19:23 32.61838 -10.49957 33980 ft 417 kts 221°
2026-05-06 19:23 32.57243 -10.54142 33988 ft 416 kts 221°
2026-05-06 19:24 32.52656 -10.58315 33970 ft 416 kts 221°
2026-05-06 19:24 32.48065 -10.62487 33991 ft 416 kts 221°
2026-05-06 19:25 32.43461 -10.66667 33961 ft 418 kts 221°
2026-05-06 19:25 32.38840 -10.70854 33980 ft 419 kts 221°
2026-05-06 19:26 32.34210 -10.75044 33990 ft 419 kts 221°
2026-05-06 19:26 32.29569 -10.79239 33990 ft 420 kts 221°
2026-05-06 19:27 32.24917 -10.83438 33992 ft 421 kts 221°
2026-05-06 19:27 32.20264 -10.87632 33990 ft 421 kts 221°
2026-05-06 19:28 32.15603 -10.91828 33991 ft 421 kts 221°
2026-05-06 19:28 32.10942 -10.96018 33970 ft 421 kts 221°
2026-05-06 19:29 32.06288 -11.00197 33989 ft 421 kts 221°
2026-05-06 19:29 32.01627 -11.04378 33998 ft 422 kts 221°
2026-05-06 19:30 31.96951 -11.08566 33998 ft 423 kts 221°
2026-05-06 19:30 31.92260 -11.12762 34000 ft 424 kts 221°
2026-05-06 19:31 31.87559 -11.16961 33997 ft 425 kts 221°
2026-05-06 19:31 31.80490 -11.23266 33991 ft 425 kts 221°
2026-05-06 19:32 31.75813 -11.27430 33991 ft 424 kts 221°
2026-05-06 19:32 31.71118 -11.31610 33997 ft 423 kts 221°
2026-05-06 19:33 31.66421 -11.35792 33997 ft 424 kts 221°
2026-05-06 19:33 31.61715 -11.39981 34005 ft 425 kts 221°
2026-05-06 19:34 31.56994 -11.44177 34003 ft 427 kts 221°
2026-05-06 19:34 31.52257 -11.48380 33998 ft 428 kts 221°
2026-05-06 19:35 31.47503 -11.52592 33999 ft 428 kts 221°
2026-05-06 19:35 31.42750 -11.56798 33994 ft 429 kts 221°
2026-05-06 19:36 31.37980 -11.61014 34000 ft 429 kts 221°
2026-05-06 19:36 31.33237 -11.65200 33998 ft 429 kts 221°
2026-05-06 19:37 31.28460 -11.69411 33996 ft 428 kts 221°
2026-05-06 19:37 31.24502 -11.72897 33983 ft 427 kts 220°
2026-05-06 19:38 31.18958 -11.77771 33996 ft 426 kts 220°
2026-05-06 19:38 31.14247 -11.81908 34003 ft 425 kts 220°
2026-05-06 19:39 31.09511 -11.86062 34001 ft 424 kts 220°
2026-05-06 19:39 31.04792 -11.90196 34003 ft 424 kts 220°
2026-05-06 19:40 31.00075 -11.94322 34005 ft 424 kts 220°
2026-05-06 19:40 30.96156 -11.97748 33984 ft 424 kts 220°
2026-05-06 19:41 30.91442 -12.01861 33999 ft 423 kts 220°
2026-05-06 19:41 30.86727 -12.05972 33986 ft 424 kts 221°
2026-05-06 19:42 30.81996 -12.10091 34009 ft 426 kts 221°
2026-05-06 19:42 30.77241 -12.14227 34007 ft 429 kts 221°
2026-05-06 19:43 30.72445 -12.18392 34007 ft 431 kts 220°
2026-05-06 19:43 30.67630 -12.22568 34016 ft 433 kts 220°
2026-05-06 19:44 30.62794 -12.26757 34014 ft 434 kts 220°
2026-05-06 19:44 30.57951 -12.30947 34004 ft 434 kts 220°
2026-05-06 19:45 30.53103 -12.35137 34008 ft 434 kts 220°
2026-05-06 19:45 30.48267 -12.39306 34010 ft 433 kts 220°
2026-05-06 19:46 30.43455 -12.43436 34006 ft 433 kts 220°
2026-05-06 19:46 30.38620 -12.47583 34016 ft 433 kts 220°
2026-05-06 19:47 30.33768 -12.51740 34010 ft 434 kts 220°
2026-05-06 19:47 30.28911 -12.55899 34021 ft 435 kts 220°
2026-05-06 19:48 30.24042 -12.60061 34019 ft 436 kts 220°
2026-05-06 19:48 30.19150 -12.64238 34019 ft 437 kts 220°
2026-05-06 19:49 30.14263 -12.68408 34020 ft 437 kts 220°
2026-05-06 19:49 30.09369 -12.72587 34018 ft 437 kts 221°
2026-05-06 19:50 30.04638 -12.76974 34017 ft 436 kts 224°
2026-05-06 19:50 29.99971 -12.81448 34025 ft 437 kts 224°
2026-05-06 19:51 29.95279 -12.85910 34023 ft 438 kts 224°
2026-05-06 19:51 29.90555 -12.90362 34023 ft 439 kts 224°
2026-05-06 19:52 29.85803 -12.94818 34027 ft 441 kts 224°
2026-05-06 19:52 29.81041 -12.99275 34024 ft 442 kts 223°
2026-05-06 19:53 29.76302 -13.03706 34024 ft 442 kts 223°
2026-05-06 19:53 29.72065 -13.07663 34019 ft 442 kts 223°
2026-05-06 19:54 29.67291 -13.12116 34027 ft 442 kts 223°
2026-05-06 19:54 29.62519 -13.16563 34020 ft 442 kts 224°
2026-05-06 19:55 29.57741 -13.21010 34034 ft 443 kts 224°
2026-05-06 19:55 29.52941 -13.25472 34033 ft 444 kts 224°
2026-05-06 19:56 29.48133 -13.29936 34030 ft 445 kts 224°
2026-05-06 19:56 29.43308 -13.34409 34013 ft 446 kts 223°
2026-05-06 19:57 29.38481 -13.38878 34025 ft 446 kts 223°
2026-05-06 19:57 29.33650 -13.43346 34027 ft 446 kts 223°
2026-05-06 19:58 29.28811 -13.47815 34031 ft 446 kts 223°
2026-05-06 19:58 29.23976 -13.52275 34020 ft 447 kts 224°
2026-05-06 19:59 29.19128 -13.56743 34026 ft 448 kts 224°
2026-05-06 19:59 29.14270 -13.61213 34027 ft 449 kts 224°
2026-05-06 20:00 29.09400 -13.65688 34025 ft 449 kts 223°
2026-05-06 20:00 29.04519 -13.70169 34022 ft 450 kts 223°
2026-05-06 20:01 28.99631 -13.74650 34024 ft 451 kts 223°
2026-05-06 20:01 28.94738 -13.79129 34023 ft 451 kts 223°
2026-05-06 20:02 28.89849 -13.83600 34024 ft 450 kts 223°
2026-05-06 20:02 28.85090 -13.87946 34012 ft 450 kts 224°
2026-05-06 20:03 28.80129 -13.92473 34008 ft 450 kts 223°
2026-05-06 20:03 28.75239 -13.96928 34029 ft 450 kts 223°
2026-05-06 20:04 28.70338 -14.01388 34028 ft 451 kts 223°
2026-05-06 20:04 28.65428 -14.05850 34025 ft 452 kts 223°
2026-05-06 20:05 28.60549 -14.10279 34028 ft 453 kts 223°
2026-05-06 20:05 28.55650 -14.14720 34027 ft 453 kts 223°
2026-05-06 20:06 28.50713 -14.19190 34027 ft 454 kts 223°
2026-05-06 20:06 28.45776 -14.23654 34012 ft 453 kts 223°
2026-05-06 20:07 28.40838 -14.28115 34024 ft 454 kts 223°
2026-05-06 20:07 28.35897 -14.32573 34025 ft 454 kts 223°
2026-05-06 20:08 28.30945 -14.37035 34026 ft 455 kts 223°
2026-05-06 20:08 28.25990 -14.41495 34023 ft 455 kts 223°
2026-05-06 20:09 28.21028 -14.45955 34025 ft 455 kts 223°
2026-05-06 20:09 28.16069 -14.50408 34016 ft 455 kts 222°
2026-05-06 20:10 28.11108 -14.54857 34020 ft 454 kts 222°
2026-05-06 20:10 28.06159 -14.59291 34009 ft 454 kts 223°
2026-05-06 20:11 28.01297 -14.63805 34002 ft 449 kts 232°
2026-05-06 20:11 27.99718 -14.66558 34050 ft 434 kts 252°
2026-05-06 20:11 27.98822 -14.69547 34022 ft 430 kts 260°
2026-05-06 20:12 27.97445 -14.76120 34023 ft 430 kts 261°
2026-05-06 20:12 27.96156 -14.82389 34020 ft 432 kts 261°
2026-05-06 20:13 27.94759 -14.88956 34025 ft 433 kts 261°
2026-05-06 20:13 27.93322 -14.95577 33998 ft 434 kts 261°
2026-05-06 20:14 27.91869 -15.02239 33376 ft 438 kts 261°
2026-05-06 20:14 27.91258 -15.05031 32870 ft 436 kts 261°
2026-05-06 20:14 27.90534 -15.08330 32467 ft 429 kts 261°
2026-05-06 20:15 27.89821 -15.11576 31983 ft 425 kts 261°
2026-05-06 20:15 27.89112 -15.14806 31539 ft 421 kts 261°
2026-05-06 20:15 27.88412 -15.17996 31091 ft 417 kts 261°
2026-05-06 20:15 27.87717 -15.21161 30650 ft 413 kts 261°
2026-05-06 20:16 27.87027 -15.24299 30217 ft 409 kts 261°
2026-05-06 20:16 27.86344 -15.27405 29726 ft 406 kts 261°
2026-05-06 20:16 27.85667 -15.30480 29236 ft 401 kts 261°
2026-05-06 20:16 27.84996 -15.33519 28791 ft 396 kts 261°
2026-05-06 20:17 27.84333 -15.36525 28349 ft 392 kts 261°
2026-05-06 20:17 27.83676 -15.39497 27888 ft 388 kts 261°
2026-05-06 20:17 27.83037 -15.42444 27454 ft 383 kts 263°
2026-05-06 20:17 27.82939 -15.45371 27058 ft 368 kts 283°
2026-05-06 20:18 27.83368 -15.48195 26668 ft 364 kts 281°
2026-05-06 20:18 27.83649 -15.51048 26255 ft 367 kts 279°
2026-05-06 20:18 27.83882 -15.53944 25824 ft 372 kts 279°
2026-05-06 20:18 27.84105 -15.56848 25387 ft 370 kts 279°
2026-05-06 20:19 27.84331 -15.59735 24947 ft 367 kts 279°
2026-05-06 20:19 27.84561 -15.62592 24522 ft 364 kts 279°
2026-05-06 20:19 27.84797 -15.65437 24089 ft 362 kts 279°
2026-05-06 20:19 27.85037 -15.68267 23647 ft 361 kts 280°
2026-05-06 20:20 27.85282 -15.71084 23166 ft 361 kts 279°
2026-05-06 20:20 27.85521 -15.73903 22706 ft 359 kts 279°
2026-05-06 20:20 27.85758 -15.76697 22276 ft 356 kts 279°
2026-05-06 20:20 27.85994 -15.79472 21853 ft 353 kts 279°
2026-05-06 20:21 27.86227 -15.82220 21435 ft 350 kts 278°
2026-05-06 20:21 27.86459 -15.84947 21026 ft 347 kts 278°
2026-05-06 20:21 27.86688 -15.87652 20632 ft 344 kts 278°
2026-05-06 20:21 27.86915 -15.90334 20225 ft 342 kts 278°
2026-05-06 20:22 27.87140 -15.92994 19831 ft 339 kts 278°
2026-05-06 20:22 27.87363 -15.95638 19435 ft 337 kts 277°
2026-05-06 20:22 27.87584 -15.98264 19042 ft 335 kts 277°
2026-05-06 20:22 27.87803 -16.00879 18639 ft 333 kts 277°
2026-05-06 20:23 27.88021 -16.03482 18241 ft 331 kts 277°
2026-05-06 20:23 27.88237 -16.06068 17797 ft 330 kts 277°
2026-05-06 20:23 27.88451 -16.08637 17375 ft 327 kts 277°
2026-05-06 20:23 27.88663 -16.11191 16976 ft 325 kts 277°
2026-05-06 20:24 27.88873 -16.13722 16582 ft 323 kts 276°
2026-05-06 20:24 27.89082 -16.16236 16197 ft 320 kts 276°
2026-05-06 20:24 27.89288 -16.18735 15816 ft 318 kts 276°
2026-05-06 20:24 27.89490 -16.21177 15526 ft 313 kts 276°
2026-05-06 20:25 27.89624 -16.22814 15459 ft 307 kts 276°
2026-05-06 20:25 27.89854 -16.25964 15273 ft 300 kts 271°
2026-05-06 20:25 27.89683 -16.27511 15062 ft 300 kts 254°
2026-05-06 20:25 27.88563 -16.30388 14642 ft 299 kts 249°
2026-05-06 20:26 27.87757 -16.32546 14308 ft 298 kts 249°
2026-05-06 20:26 27.86960 -16.34702 13973 ft 297 kts 249°
2026-05-06 20:26 27.86163 -16.36851 13620 ft 296 kts 250°
2026-05-06 20:26 27.85624 -16.38297 13372 ft 295 kts 249°
2026-05-06 20:27 27.84828 -16.40424 13027 ft 293 kts 249°
2026-05-06 20:27 27.84036 -16.42540 12694 ft 292 kts 250°
2026-05-06 20:27 27.83248 -16.44644 12362 ft 290 kts 249°
2026-05-06 20:27 27.82463 -16.46738 12045 ft 288 kts 249°
2026-05-06 20:28 27.81682 -16.48819 11715 ft 287 kts 250°
2026-05-06 20:28 27.80905 -16.50887 11401 ft 286 kts 250°
2026-05-06 20:28 27.80127 -16.52957 11079 ft 287 kts 250°
2026-05-06 20:28 27.79346 -16.55036 10724 ft 287 kts 250°
2026-05-06 20:29 27.78566 -16.57107 10411 ft 286 kts 251°
2026-05-06 20:29 27.77792 -16.59167 10195 ft 281 kts 249°
2026-05-06 20:29 27.77038 -16.61166 10065 ft 273 kts 251°
2026-05-06 20:29 27.76301 -16.63124 9865 ft 270 kts 251°
2026-05-06 20:30 27.75574 -16.65052 9770 ft 265 kts 251°
2026-05-06 20:30 27.74349 -16.68820 9500 ft 246 kts 271°
2026-05-06 20:30 27.74713 -16.70625 9331 ft 236 kts 298°
2026-05-06 20:31 27.75626 -16.72170 9101 ft 239 kts 314°
2026-05-06 20:31 27.76857 -16.73455 8860 ft 242 kts 319°
2026-05-06 20:31 27.78106 -16.74724 8583 ft 241 kts 318°
2026-05-06 20:31 27.79341 -16.75999 8332 ft 240 kts 318°
2026-05-06 20:32 27.80566 -16.77274 8086 ft 239 kts 318°
2026-05-06 20:32 27.81783 -16.78549 7835 ft 238 kts 318°
2026-05-06 20:32 27.82996 -16.79822 7575 ft 238 kts 318°
2026-05-06 20:32 27.84202 -16.81090 7327 ft 237 kts 317°
2026-05-06 20:33 27.85169 -16.82585 7073 ft 240 kts 289°
2026-05-06 20:33 27.85230 -16.84460 7083 ft 246 kts 261°
2026-05-06 20:33 27.84701 -16.86300 7030 ft 245 kts 247°
2026-05-06 20:33 27.84012 -16.88008 7002 ft 233 kts 250°
2026-05-06 20:34 27.83380 -16.89645 6993 ft 223 kts 249°
2026-05-06 20:34 27.82775 -16.91238 7010 ft 219 kts 250°
2026-05-06 20:34 27.82169 -16.92829 7032 ft 223 kts 250°
2026-05-06 20:34 27.81562 -16.94437 7038 ft 228 kts 249°
2026-05-06 20:35 27.80939 -16.96091 7030 ft 229 kts 249°
2026-05-06 20:35 27.80316 -16.97742 7016 ft 227 kts 250°
2026-05-06 20:35 27.79701 -16.99375 7026 ft 225 kts 249°
2026-05-06 20:35 27.79087 -17.01000 7021 ft 224 kts 250°
2026-05-06 20:36 27.78479 -17.02611 7020 ft 223 kts 249°
2026-05-06 20:36 27.77872 -17.04218 6956 ft 223 kts 249°
2026-05-06 20:36 27.77258 -17.05844 6587 ft 230 kts 249°
2026-05-06 20:36 27.76871 -17.07630 6091 ft 238 kts 276°
2026-05-06 20:37 27.77490 -17.09305 5710 ft 234 kts 317°
2026-05-06 20:37 27.78874 -17.10210 5463 ft 231 kts 339°
2026-05-06 20:37 27.80356 -17.10884 5258 ft 229 kts 338°
2026-05-06 20:37 27.81845 -17.11494 5068 ft 225 kts 350°
2026-05-06 20:38 27.83367 -17.11278 4923 ft 223 kts 26°
2026-05-06 20:38 27.84580 -17.10191 4836 ft 226 kts 50°
2026-05-06 20:38 27.85333 -17.08614 4740 ft 232 kts 66°
2026-05-06 20:38 27.85951 -17.06915 4615 ft 235 kts 64°
2026-05-06 20:39 27.86596 -17.05209 4500 ft 236 kts 65°
2026-05-06 20:39 27.87234 -17.03506 4372 ft 233 kts 64°
2026-05-06 20:39 27.87867 -17.01836 4256 ft 229 kts 65°
2026-05-06 20:39 27.87956 -17.01602 4241 ft 229 kts 65°
2026-05-06 20:49 27.88087 -17.01252 4222 ft 229 kts 65°
2026-05-06 20:49 27.88708 -16.99584 4104 ft 235 kts 65°
2026-05-06 20:49 27.89357 -16.97861 4035 ft 241 kts 65°
2026-05-06 20:49 27.90012 -16.96116 3902 ft 240 kts 66°
2026-05-06 20:50 27.90657 -16.94400 3784 ft 234 kts 65°
2026-05-06 20:50 27.91285 -16.92727 3663 ft 230 kts 65°
2026-05-06 20:50 27.91910 -16.91062 3560 ft 231 kts 65°
2026-05-06 20:50 27.92541 -16.89383 3464 ft 233 kts 66°
2026-05-06 20:51 27.93175 -16.87693 3357 ft 235 kts 66°
2026-05-06 20:51 27.93820 -16.85993 3236 ft 235 kts 64°
2026-05-06 20:51 27.94503 -16.84317 3112 ft 234 kts 63°
2026-05-06 20:51 27.95189 -16.82662 3039 ft 231 kts 64°
2026-05-06 20:52 27.95862 -16.81029 3020 ft 226 kts 63°
2026-05-06 20:52 27.96581 -16.79484 3007 ft 217 kts 60°
2026-05-06 20:52 27.97225 -16.77995 3010 ft 204 kts 65°
2026-05-06 20:52 27.97756 -16.76558 3035 ft 197 kts 66°
2026-05-06 20:53 27.98252 -16.75140 3035 ft 194 kts 67°
2026-05-06 20:53 27.98736 -16.73742 2931 ft 189 kts 67°
2026-05-06 20:53 27.99211 -16.72366 2712 ft 187 kts 68°
2026-05-06 20:53 27.99675 -16.71024 2461 ft 179 kts 67°
2026-05-06 20:54 28.00115 -16.69752 2204 ft 169 kts 68°
2026-05-06 20:54 28.00519 -16.68527 1849 ft 164 kts 66°
2026-05-06 20:54 28.00907 -16.67330 1460 ft 158 kts 67°
2026-05-06 20:54 28.01296 -16.66234 1285 ft 139 kts 66°
2026-05-06 20:55 28.01650 -16.65292 1159 ft 123 kts 65°
2026-05-06 20:55 28.01943 -16.64412 1248 ft 123 kts 68°
2026-05-06 20:55 28.02225 -16.63462 1256 ft 132 kts 69°
2026-05-06 20:55 28.02523 -16.62502 1090 ft 126 kts 64°
2026-05-06 20:56 28.02871 -16.61613 928 ft 123 kts 63°
2026-05-06 20:56 28.03224 -16.60740 692 ft 121 kts 66°
2026-05-06 20:56 28.03535 -16.59845 510 ft 125 kts 69°
2026-05-06 20:56 28.03858 -16.58932 291 ft 124 kts 68°
2026-05-06 20:57 28.04168 -16.58050 205 ft 111 kts 68°
2026-05-06 20:57 28.04414 -16.57345 197 ft 74 kts 68°
2026-05-06 20:57 28.04521 -16.57063 211 ft 22 kts 55°
2026-05-06 20:57 28.04614 -16.56929 202 ft 21 kts 49°
2026-05-06 20:58 28.04694 -16.56825 212 ft 11 kts 44°
2026-05-06 20:58 28.04759 -16.56804 218 ft 11 kts 336°
2026-05-06 20:58 28.04760 -16.56908 222 ft 17 kts 246°
2026-05-06 20:58 28.04716 -16.57030 222 ft 17 kts 250°
2026-05-06 20:59 28.04707 -16.57149 222 ft 16 kts 316°
2026-05-06 20:59 28.04781 -16.57230 226 ft 16 kts 266°
2026-05-06 20:59 28.04739 -16.57355 224 ft 18 kts 248°
2026-05-06 20:59 28.04688 -16.57493 224 ft 19 kts 245°
2026-05-06 21:00 28.04655 -16.57582 223 ft 11 kts 249°
2026-05-06 21:00 28.04628 -16.57659 223 ft 10 kts 248°
2026-05-06 21:00 28.04602 -16.57732 223 ft 9 kts 248°
2026-05-06 21:00 28.04621 -16.57765 225 ft 5 kts 334°
2026-05-06 21:01 28.04656 -16.57781 225 ft 5 kts 338°
2026-05-06 21:01 28.04668 -16.57786 225 ft 0 kts 338°